Flight Track Log - Related Links

Times and Time Zones

All times are in EDT time to prevent confusion due to time zone crossing. See the ASQ4504 flight status page for this flight to view local times or setup timezone preferences in your user account.

Time Position Orientation Groundspeed Altitude Reporting Facility
EDT Latitude Longitude Course Direction KTS MPH feet Rate Location/Type
Sat 11:53:50 PM 32.5244 -115.4800 312° West 417 480 36,000  Level Los Angeles Center
Sat 11:54:51 PM 32.6008 -115.5819 312° West 415 478 36,000  Level Los Angeles Center
Sat 11:55:52 PM 32.6719 -115.6894 308° West 416 479 36,000 -393 Level Los Angeles Center
Sat 11:56:53 PM 32.7328 -115.8053 302° West 416 479 35,200 -976 Descending Los Angeles Center
Sat 11:57:55 PM 32.7953 -115.9231 302° West 420 483 34,000 -585 Descending Los Angeles Center
Sat 11:58:56 PM 32.8564 -116.0394 302° West 419 482 34,000 -98 Level Los Angeles Center
Sat 11:59:57 PM 32.9183 -116.1558 302° West 420 483 33,800 -1,869 Descending Los Angeles Center
Sun 12:00:58 AM 32.9850 -116.2822 302° West 420 483 30,200 -3,073 Descending Los Angeles Center
Sun 12:02:00 AM 33.0483 -116.4053 302° West 432 497 27,500 -2,634 Descending Los Angeles Center
Sun 12:03:01 AM 33.1167 -116.5381 302° West 438 504 24,800 -2,705 Descending Los Angeles Center
Sun 12:04:02 AM 33.1508 -116.6675 288° West 419 482 22,000 -2,705 Descending Los Angeles Center
Sun 12:05:03 AM 33.1672 -116.8039 278° West 417 480 19,300 -2,410 Descending Los Angeles Center
Sun 12:06:04 AM 33.1833 -116.9367 278° West 410 472 17,100 -2,066 Descending Los Angeles Center
Sun 12:07:05 AM 33.1983 -117.0672 278° West 402 463 15,100 -2,071 Descending Los Angeles Center
Sun 12:07:57 AM 33.2167 -117.2000 279° West 368 423 13,200 -1,698 Descending Southern California TRACON
Sun 12:08:51 AM 33.2333 -117.3000 281° West 381 438 12,100 -600 Descending Southern California TRACON
Sun 12:09:57 AM 33.2667 -117.4333 287° West 391 450 12,000 -48 Descending Southern California TRACON
Sun 12:10:57 AM 33.3333 -117.5167 314° West 360 414 12,000 -476 Level Southern California TRACON
Sun 12:12:03 AM 33.4000 -117.6000 314° West 333 383 11,000 -1,000 Descending Southern California TRACON
Sun 12:12:57 AM 33.4500 -117.6667 312° West 290 334 10,000 -1,263 Descending Southern California TRACON
Sun 12:13:57 AM 33.5167 -117.7333 320° Northwest 270 311 8,600 -1,300 Descending Southern California TRACON
Sun 12:14:57 AM 33.5667 -117.8000 312° West 272 313 7,400 -800 Descending Southern California TRACON
Sun 12:15:57 AM 33.6167 -117.8500 320° Northwest 273 314 7,000 -200 Descending Southern California TRACON
Sun 12:16:57 AM 33.6667 -117.9167 312° West 271 312 7,000 50 Level Southern California TRACON
Sun 12:17:57 AM 33.7333 -117.9833 320° Northwest 267 307 7,100 50 Climbing Southern California TRACON
Sun 12:18:57 AM 33.7833 -118.0500 312° West 265 305 7,100 -650 Level Southern California TRACON
Sun 12:19:57 AM 33.8333 -118.1000 320° Northwest 255 293 5,800 -1,000 Descending Southern California TRACON
Sun 12:20:57 AM 33.8833 -118.1333 331° Northwest 224 258 5,100 -795 Descending Southern California TRACON
Sun 12:21:20 AM 33.9014 -118.1508 321° Northwest 232 267 4,700 -786 Descending Los Angeles Center
Sun 12:22:21 AM 33.9433 -118.1908 322° Northwest 209 241 4,000 -984 Descending Los Angeles Center
Sun 12:23:22 AM 33.9528 -118.2478 281° West 182 209 2,700 -1,230 Descending Los Angeles Center
Sun 12:24:23 AM 33.9453 -118.2994 260° West 169 194 1,500 -984 Descending Los Angeles Center
Sun 12:25:24 AM 33.9411 -118.3506 264° West 143 165 700 -639 Descending Los Angeles Center
Sun 12:26:25 AM 33.9383 -118.3842 264° West 134 154 200 -492 Descending Los Angeles Center
Sun 12:28:00 AM 33.9333 -118.4000 296° West  Level FlightAware Approximate

Login

Don't have an account? Register now (free) for customized features, flight alerts, and more!